TimeIST,TemperatureF,Dew PointF,Humidity,Sea Level PressureIn,VisibilityMPH,Wind Direction,Wind SpeedMPH,Gust SpeedMPH,PrecipitationIn,Events,Conditions,WindDirDegrees,DateUTC
12:10 AM,75.2,60.8,61,29.83,2.5,Calm,Calm,-,N/A,,Smoke,0,2012-10-10 18:40:00
12:40 AM,73.4,62.6,69,29.83,2.5,Calm,Calm,-,N/A,,Smoke,0,2012-10-10 19:10:00
1:40 AM,71.6,62.6,73,29.80,2.5,Calm,Calm,-,N/A,,Haze,0,2012-10-10 20:10:00
2:10 AM,69.8,62.6,78,29.80,2.5,Calm,Calm,-,N/A,,Haze,0,2012-10-10 20:40:00
2:30 AM,69,63,75,29.82,1,Calm,Calm,,,,Haze,,2012-10-10 21:00:00
2:40 AM,69.8,62.6,78,29.80,2.5,Calm,Calm,-,N/A,,Haze,0,2012-10-10 21:10:00
3:10 AM,69.8,64.4,83,29.80,2.5,Calm,Calm,-,N/A,,Haze,0,2012-10-10 21:40:00
3:40 AM,69.8,64.4,83,29.80,2.5,Calm,Calm,-,N/A,,Haze,0,2012-10-10 22:10:00
4:10 AM,69.8,62.6,78,29.80,2.5,Calm,Calm,-,N/A,,Haze,0,2012-10-10 22:40:00
4:40 AM,69.8,62.6,78,29.80,2.5,Calm,Calm,-,N/A,,Haze,0,2012-10-10 23:10:00
5:10 AM,68.0,62.6,83,29.80,2.5,Calm,Calm,-,N/A,,Haze,0,2012-10-10 23:40:00
5:30 AM,69,60,66,29.82,1,Calm,Calm,,,,Haze,,2012-10-11 00:00:00
5:40 AM,68.0,64.4,88,29.83,2.5,Calm,Calm,-,N/A,,Haze,0,2012-10-11 00:10:00
7:10 AM,69.8,60.8,73,29.86,1.9,Calm,Calm,-,N/A,,Haze,0,2012-10-11 01:40:00
8:10 AM,77.0,64.4,65,29.86,1.4,Calm,Calm,-,N/A,,Haze,0,2012-10-11 02:40:00
8:30 AM,76,64,58,29.89,2,Calm,Calm,,,,Haze,,2012-10-11 03:00:00
8:40 AM,-9999,-9999,N/A,29.89,1.6,Calm,Calm,-,N/A,,Haze,0,2012-10-11 03:10:00
9:10 AM,82.4,64.4,54,29.89,1.6,Calm,Calm,-,N/A,,Haze,0,2012-10-11 03:40:00
9:40 AM,84.2,62.6,48,29.89,1.6,Calm,Calm,-,N/A,,Haze,0,2012-10-11 04:10:00
11:30 AM,91,59,24,29.88,2,North,3.5,,,,,0,2012-10-11 06:00:00
11:40 AM,95.0,59.0,30,29.83,3.7,NNE,3.5,-,N/A,,Unknown,30,2012-10-11 06:10:00
12:10 PM,95.0,59.0,30,29.83,3.7,Calm,Calm,-,N/A,,Unknown,0,2012-10-11 06:40:00
12:40 PM,96.8,60.8,30,29.83,3.7,NNW,3.5,-,N/A,,Unknown,340,2012-10-11 07:10:00
1:10 PM,98.6,60.8,29,29.80,3.7,Variable,3.5,-,N/A,,Unknown,0,2012-10-11 07:40:00
1:40 PM,98.6,60.8,29,29.77,3.7,NE,5.8,-,N/A,,Unknown,50,2012-10-11 08:10:00
2:10 PM,98.6,62.6,30,29.77,3.7,NNE,5.8,-,N/A,,Unknown,20,2012-10-11 08:40:00
2:30 PM,96,56,17,29.79,2,NW,4.6,,,,,320,2012-10-11 09:00:00
2:40 PM,98.6,60.8,29,29.74,3.7,NE,4.6,-,N/A,,Unknown,50,2012-10-11 09:10:00
3:10 PM,98.6,60.8,29,29.74,3.7,NE,5.8,-,N/A,,Unknown,50,2012-10-11 09:40:00
3:40 PM,100.4,60.8,27,29.74,3.7,NE,4.6,-,N/A,,Unknown,50,2012-10-11 10:10:00
4:10 PM,100.4,59.0,25,29.74,3.7,Calm,Calm,-,N/A,,Unknown,0,2012-10-11 10:40:00
4:40 PM,100.4,59.0,25,29.74,3.7,NE,3.5,-,N/A,,Unknown,40,2012-10-11 11:10:00
5:10 PM,98.6,59.0,27,29.74,3.7,NNE,3.5,-,N/A,,Unknown,20,2012-10-11 11:40:00
5:30 PM,93,69,37,29.82,2,Calm,Calm,,,,Clear,,2012-10-11 12:00:00
5:40 PM,96.8,59.0,28,29.74,3.7,NNE,4.6,-,N/A,,Unknown,20,2012-10-11 12:10:00
6:10 PM,93.2,57.2,30,29.74,3.7,NNE,3.5,-,N/A,,Unknown,20,2012-10-11 12:40:00
7:10 PM,89.6,69.8,52,29.77,2.5,Variable,3.5,-,N/A,,Smoke,0,2012-10-11 13:40:00
7:40 PM,87.8,68.0,52,29.77,2.5,Calm,Calm,-,N/A,,Smoke,0,2012-10-11 14:10:00
8:10 PM,86.0,66.2,51,29.80,2.5,Calm,Calm,-,N/A,,Smoke,0,2012-10-11 14:40:00
8:30 PM,80,68,59,29.82,2,Calm,Calm,,,,Haze,,2012-10-11 15:00:00
9:40 PM,80.6,66.2,61,29.80,2.5,Calm,Calm,-,N/A,,Smoke,0,2012-10-11 16:10:00
10:10 PM,80.6,68.0,65,29.80,2.5,Calm,Calm,-,N/A,,Haze,0,2012-10-11 16:40:00
10:40 PM,78.8,71.6,78,29.80,2.5,Calm,Calm,-,N/A,,Haze,0,2012-10-11 17:10:00
11:10 PM,80.6,69.8,70,29.80,2.5,Calm,Calm,-,N/A,,Haze,0,2012-10-11 17:40:00
11:40 PM,78.8,66.2,65,29.80,2.5,Calm,Calm,-,N/A,,Haze,0,2012-10-11 18:10:00